Regional Weather Roundup
Issued by NWS

Home | Current Version | Previous Version | Graphics & Text | Print | Product List | Glossary On
Versions: 1 2 3 4 5 6 7 8 9 10 11 12 13 14 15 16 17 18 19 20 21 22 23 24 25 26 27 28 29 30 31 32 33 34 35 36 37 38 39 40 41 42 43 44 45 46 47 48 49 50
000
ASUS45 KBOU 292307
RWRCO

WEATHER ROUNDUP FOR COLORADO
NATIONAL WEATHER SERVICE DENVER/BOULDER CO
500 PM MDT MON SEP 29 2014

NOTE: "FAIR" INDICATES FEW OR NO CLOUDS BELOW 12000 FEET WITH NO
SIGNIFICANT WEATHER AND/OR OBSTRUCTIONS TO VISIBILITY.

COZ001>005-013-030-031-300000-
...NORTHWEST COLORADO...

CITY           SKY/WX    TMP DP  RH WIND       PRES   REMARKS
CRAIG          LGT RAIN  54  41  61 W10       29.99R
HAYDEN         CLOUDY    54  36  50 W13       29.98S
MEEKER         HVY RAIN  47  41  80 NW8       30.02R VSB 1
MOUNT WERNER   NOT AVBL
STEAMBOAT SPGS CLOUDY    52  36  55 CALM      29.98S
WALDEN         CLOUDY    41  36  81 N6        30.03F
$$

COZ006>008-011-300000-
...WEST CENTRAL VALLEYS...

CITY           SKY/WX    TMP DP  RH WIND       PRES   REMARKS
GRAND JUNCTION LGT RAIN  49  43  80 CALM      30.00S
MONTROSE       LGT RAIN  51  42  71 W7        30.04R
EAGLE          LGT RAIN  45  43  93 SW8       30.09R
RIFLE          CLOUDY    48  43  82 E12       30.01F
DELTA          RAIN      50  46  84 W8        30.06R
NUCLA          CLOUDY    54  41  62 NE3       30.07R
$$

COZ017>023-064>068-300000-
...SOUTHWEST COLORADO...

CITY           SKY/WX    TMP DP  RH WIND       PRES   REMARKS
DURANGO        MOSUNNY   56  42  59 W14       30.06R
CORTEZ         MOSUNNY   59  37  44 W13       30.05S
PAGOSA SPRINGS MOSUNNY   47  40  77 SE5       30.10S
TELLURIDE      NOT AVBL
WOLF CREEK PAS CLOUDY    28  28 100 SW22G35   30.19R WCI  15
$$

COZ009-010-012-014-032>034-037-058>063-300000-
...CENTRAL COLORADO...

CITY           SKY/WX    TMP DP  RH WIND       PRES   REMARKS
ASPEN          LGT RAIN  42  37  82 CALM      30.06S
BUENA VISTA    CLOUDY    48  37  64 S3        30.00F
COPPER MTN     LGT SNOW  36  30  80 S18G24    30.17S VSB 3/4
BERTHOUD PASS  SNOW      28  27  93 NW13      30.20S VSB<1/4 WCI  18
COTTONWOOD PAS CLOUDY    43  32  65 W8        30.07S
GUNNISON       PTSUNNY   43  34  70 E6        30.10F
KREMMLING      RAIN      45  37  76 NW5       30.06R
LEADVILLE      CLOUDY    40  35  83 N8        30.04F
MONARCH PASS   FOG       28  28 100 MISG      30.25F VSB<1/4
SALIDA         CLOUDY    55  34  45 S18G30    30.09R
SUNLIGHT       LGT SNOW  34  34 100 CALM      30.16S
WILKERSON PASS NOT AVBL
$$

COZ069>075-300000-
...SAN LUIS VALLEY/SANGRE DE CRISTO MOUNTAINS...

CITY           SKY/WX    TMP DP  RH WIND       PRES   REMARKS
ALAMOSA        LGT RAIN  48  42  80 NE8       30.08R
LA VETA PASS   LGT SNOW  34  32  93 S15G35    30.11F WCI  24
SAGUACHE       CLOUDY    48  34  57 W10       30.10R
$$

COZ035-036-038>040-300000-
...NORTHERN COLORADO FRONT RANGE...

CITY           SKY/WX    TMP DP  RH WIND       PRES   REMARKS
DENVER INTL AP CLOUDY    55  52  89 NW10      29.85F THUNDER
DMNS CITY PARK   N/A     54  53  96 S6        29.90R
AURORA         TSTM      53  53 100 W12       29.89F
FRONT RANGE AP NOT AVBL
ERIE MUNI ARPT CLOUDY    56  54  92 W6        29.87S
BOULDER MUN AP LGT RAIN  55  54  94 W3        29.88F
CENTENNIAL     TSTM      52  51  97 W18       29.93R
BROOMFIELD     NOT AVBL
FORT COLLINS   CLOUDY    57  54  88 NW6       29.88F
LONGMONT       LGT RAIN  59  56  88 CALM      29.89S
$$

COZ041-046-047-076>085-087-088-300000-
...PIKES PEAK/PALMER DIVIDE AND SOUTHERN FOOTHILLS...

CITY           SKY/WX    TMP DP  RH WIND       PRES   REMARKS
COLO. SPRINGS  CLOUDY    55  48  77 N5        29.88F THUNDER
A. F. ACADEMY  CLOUDY    52  39  62 VRB6      29.89F
ELLICOTT       NOT AVBL
FALCON         TSTM      46  42  85 NW6       29.94R
FORT CARSON    MOSUNNY   58  47  66 S9        29.87R
LIMON          TSTM      60  51  72 VRB6G17   29.78F
MONUMENT HILL  TSTM      41  37  87 W13G39    29.97R
TRINIDAD       PTSUNNY   63  32  31 W24G33    29.94R
$$

COZ042>045-048>051-090-091-300000-
...NORTHEAST COLORADO...

CITY           SKY/WX    TMP DP  RH WIND       PRES   REMARKS
GREELEY ARPT   CLOUDY    55  48  76 N10       29.84F
AKRON          CLOUDY    61  56  83 NE10      29.75F
BURLINGTON     PTSUNNY   79  51  37 S29G43    29.79F
WRAY           MOSUNNY   80  52  37 SE26G39   29.76F
STERLING       CLOUDY    72  61  68 SE12G26   29.73F
HOLYOKE        MOSUNNY   79  54  41 SE20G35   29.76F
FORT MORGAN    CLOUDY    61  57  88 N17       29.70F
$$

COZ086-089-092>099-300000-
...SOUTHEAST COLORADO...

CITY           SKY/WX    TMP DP  RH WIND       PRES   REMARKS
PUEBLO         LGT RAIN  60  50  69 W18G24    29.85R
LA JUNTA       PTSUNNY   82  46  28 MISG      29.74R
LAMAR          SUNNY     83  53  35 S26G43    29.75F
SPRINGFIELD      N/A     75  53  46 S31G40    29.86F
$$


USA.gov is the U.S. government's official web portal to all federal, state and local government web resources and services.